Wetbulb
56.17 55.95 54.96 53.67 52.37 50.94 48.11 45.93 48.55 56.90 55.91 47.18 44.92 42.64 47.31 50.82 52.85 55.58 52.73 51.17 48.95 47.30 48.14 45.56 46.22 47.52 50.22 55.14 53.24 47.74 48.34 44.21 42.51 45.77 50.21 50.67 46.87 45.89 42.55 38.99 38.02 37.54 37.58 40.46
56.30 55.89 54.61 53.09 52.11 51.16 45.65 42.79 46.36 56.16 54.60 43.50 43.71 47.66 50.88 52.85 51.81 52.59 52.45 50.84 51.21 50.59 46.94 44.82 48.77 50.69 54.87 55.73 52.73 48.54 48.11 42.52 38.75 42.88 44.86 47.89 45.75 45.80 44.36 42.10 40.15 39.56 38.72 42.03
56.44 55.81 54.31 53.11 52.27 51.41 45.98 45.23 46.62 48.76 51.18 48.41 44.93 44.70 47.06 48.61 54.84 52.70 52.27 51.44 51.51 49.00 46.29 46.82 46.69 49.87 54.36 56.19 55.05 61.17 53.64 42.46 42.40 43.20 43.91 45.82 45.48 47.97 47.96 45.49 38.35 40.09 42.20 43.88
56.36 55.69 54.18 53.47 52.21 51.26 48.11 47.30 44.20 45.73 41.71 44.67 45.44 44.70 46.87 48.77 47.99 51.48 51.82 50.61 50.26 48.24 44.15 46.42 46.52 49.51 50.30 53.44 56.13 52.96 47.40 42.29 43.64 44.83 48.03 48.17 47.69 48.22 49.69 44.92 44.40 42.88 46.24 46.45
56.26 55.51 54.49 53.92 52.56 51.09 50.43 44.97 43.52 44.74 43.02 44.80 45.54 44.65 45.17 47.56 48.93 49.66 47.57 46.62 49.57 49.44 44.97 45.70 44.78 46.79 46.52 46.80 50.04 48.24 48.01 43.84 44.32 44.19 49.23 49.50 47.54 49.36 49.51 49.52 49.28 47.83 48.04 47.32
56.06 55.21 54.59 54.06 52.75 49.50 44.57 47.75 48.93 45.28 43.19 43.95 43.23 43.89 46.76 48.73 48.81 49.53 50.58 49.82 47.60 46.26 48.26 49.14 48.29 48.14 47.93 48.00 46.50 46.29 44.76 44.15 43.92 41.03 47.55 47.99 43.26 46.54 48.89 49.54 51.69 50.15 44.43 48.21
55.46 54.83 54.80 54.47 53.34 51.24 44.96 45.36 46.49 42.97 41.16 43.67 45.06 47.81 49.20 48.56 48.17 45.90 49.57 49.95 46.14 50.14 49.84 49.36 48.98 46.63 46.02 47.80 47.84 47.54 44.79 41.63 42.87 40.35 42.85 37.22 47.44 51.50 52.91 51.74 52.22 51.88 51.04 52.21
55.06 54.19 54.86 54.62 53.94 52.96 45.43 45.51 46.34 43.45 39.55 44.48 46.61 47.50 47.74 47.19 46.42 46.67 48.66 50.11 50.46 49.41 47.92 42.84 40.15 40.82 42.32 44.64 46.38 45.86 46.70 44.17 42.50 40.50 37.43 42.65 47.41 50.73 51.32 49.19 47.42 51.42 54.84 57.24
54.51 53.57 54.10 54.65 54.22 53.22 46.42 45.86 48.81 46.07 40.97 41.35 48.03 45.14 45.48 41.26 40.95 43.35 46.82 50.15 50.70 49.17 43.99 41.42 35.44 35.17 38.95 39.65 43.50 43.45 46.17 44.58 43.61 40.05 39.97 37.92 43.47 51.88 55.38 53.04 43.07 51.98 53.43 57.39
53.69 53.24 53.94 54.01 54.12 53.51 48.83 46.01 48.14 46.73 41.20 43.61 44.35 42.47 42.19 45.21 42.46 40.50 42.75 44.91 46.75 46.86 40.60 37.89 36.16 36.61 42.89 38.03 37.46 39.22 40.52 43.00 40.46 38.29 37.02 41.40 48.41 52.21 54.41 44.20 43.49 52.93 56.21 58.25
52.81 53.08 53.59 53.76 53.62 54.25 50.21 45.58 48.12 46.99 42.04 43.55 46.88 48.70 43.53 43.86 42.19 39.11 42.08 43.16 42.82 42.48 39.20 39.27 38.43 38.02 40.77 40.29 41.75 41.07 39.65 38.87 37.70 39.40 37.66 35.89 51.66 51.36 46.59 49.41 51.84 54.20 55.47 54.69
52.48 52.68 53.24 53.35 53.76 54.20 52.71 43.29 47.60 49.06 44.27 43.99 47.98 50.12 50.62 49.39 48.72 43.54 41.27 40.76 40.36 42.86 40.83 41.20 40.56 39.35 39.90 38.50 36.29 42.64 39.76 41.82 40.77 42.01 43.98 50.01 52.01 51.36 53.21 53.42 52.87 53.31 54.29 56.50
52.26 52.41 52.80 53.08 53.63 54.06 52.38 45.20 45.18 45.45 43.03 43.41 43.20 45.67 51.00 50.33 50.78 51.32 41.52 41.34 43.33 43.07 45.09 42.23 41.34 38.61 40.45 35.92 37.65 39.98 43.18 46.13 42.49 44.24 46.64 49.68 51.48 53.43 54.06 55.63 55.08 56.20 56.33 55.98
52.27 52.38 52.52 52.81 53.55 53.73 52.64 44.99 46.10 44.85 44.19 38.98 42.23 51.02 47.23 51.60 48.86 49.63 48.67 46.17 46.27 45.67 44.33 40.98 39.66 38.81 42.29 38.85 40.71 39.92 44.10 45.17 42.28 42.05 46.16 48.40 51.60 52.45 54.68 55.90 56.04 57.04 56.38 55.92
52.10 52.02 52.47 53.11 53.32 53.23 50.75 47.37 46.90 47.80 44.94 38.80 40.48 46.68 48.62 49.58 48.72 50.96 49.93 47.67 44.41 43.38 41.84 40.02 39.02 40.93 41.03 41.62 41.22 39.42 44.14 42.20 40.21 39.96 45.78 45.91 48.04 51.67 53.82 52.40 53.61 55.98 56.00 54.86
52.12 52.33 52.84 52.99 53.33 52.81 46.09 45.03 49.03 48.90 47.93 41.37 36.86 44.29 46.42 49.28 49.14 48.87 47.26 47.24 45.50 44.67 42.71 41.71 43.41 44.73 45.70 38.99 37.17 42.87 47.24 49.35 49.31 47.51 50.71 50.34 50.78 52.94 54.51 52.89 53.31 53.92 54.95 55.08
52.72 52.97 53.18 53.15 52.54 47.39 42.74 44.36 47.92 49.37 46.74 43.57 38.41 39.50 48.11 52.02 52.34 50.66 47.90 49.94 47.87 46.66 44.41 42.81 42.93 43.45 44.19 40.21 37.70 43.93 47.30 48.59 49.21 50.03 50.06 48.89 51.46 50.25 53.42 54.16 55.15 55.50 54.99 55.82
52.58 52.65 52.49 52.27 51.80 49.87 45.59 47.64 50.62 48.47 43.57 45.06 38.05 39.42 43.60 52.05 48.42 44.90 48.38 46.51 46.56 46.20 44.78 44.67 42.51 44.74 45.70 39.44 43.34 46.58 48.41 49.32 49.34 50.03 50.65 50.05 51.29 52.14 52.60 53.94 54.29 53.68 53.16 53.94
52.07 52.15 52.13 48.02 46.04 44.44 48.37 54.94 52.27 47.35 46.16 39.97 41.76 37.48 38.41 48.22 47.36 47.87 48.63 49.73 45.26 48.78 44.09 44.46 45.50 42.44 40.70 45.10 47.40 48.72 49.84 49.18 49.39 50.60 51.08 51.33 50.65 50.41 51.61 52.78 53.03 52.08 52.46 53.77
51.33 48.07 46.47 44.10 48.63 56.44 54.48 49.12 47.60 44.03 44.31 42.92 38.76 42.31 40.44 46.42 45.84 44.62 44.47 45.74 43.63 40.50 44.05 46.73 43.48 42.26 47.51 50.54 51.25 51.11 51.05 51.57 51.58 49.64 49.13 50.78 49.96 50.09 50.70 51.60 53.01 53.18 53.31 54.24
46.69 44.74 44.46 47.77 55.25 48.45 47.03 44.94 41.51 41.68 39.30 42.05 43.04 44.00 42.29 48.70 43.25 42.51 45.97 42.00 42.32 38.25 43.97 42.43 41.20 42.69 48.90 51.49 51.53 52.36 52.87 53.02 52.69 53.16 52.95 53.14 52.58 51.49 51.56 52.31 53.98 54.48 54.46 53.80
44.55 43.80 46.25 46.18 47.16 44.45 41.54 40.16 43.38 41.48 41.05 46.90 43.80 47.20 47.09 47.10 48.75 43.98 43.94 39.81 42.57 38.67 45.60 41.95 38.93 45.28 49.98 50.86 51.61 52.90 53.92 53.57 53.88 55.07 54.43 54.32 54.33 54.13 53.38 53.59 54.10 55.09 55.94 55.88
47.71 44.86 43.29 41.92 40.95 33.26 38.22 38.87 41.87 44.41 47.94 48.00 46.54 44.78 46.39 47.82 46.65 43.14 41.76 39.48 38.49 45.44 40.20 40.87 43.73 48.19 50.08 51.69 53.11 54.31 55.67 56.22 56.46 56.30 56.49 55.81 55.61 56.28 55.79 55.10 56.04 56.89 56.98 57.36
43.19 42.41 33.18 37.33 35.86 39.27 39.80 39.93 42.71 45.92 45.30 46.30 46.20 44.53 44.50 45.72 43.26 45.45 38.39 42.90 43.77 40.13 37.77 39.63 45.47 48.39 50.86 53.07 54.88 54.72 54.68 55.00 55.65 56.49 57.46 57.60 57.38 56.89 57.61 57.94 58.53 58.58 57.71 58.20
42.84 42.57 34.31 38.18 41.14 42.64 45.67 46.64 45.48 45.78 46.37 44.86 45.92 45.06 45.51 44.72 44.00 43.30 41.09 40.21 40.33 41.15 40.60 45.16 49.53 51.85 52.95 54.14 54.30 54.66 54.89 55.53 56.19 56.89 57.01 57.63 57.90 57.30 57.01 58.13 58.98 59.13 59.26 58.75
43.47 42.41 39.61 41.49 40.46 43.09 45.36 47.02 44.08 46.16 45.29 46.30 46.74 42.80 42.70 44.78 43.89 43.48 43.01 42.57 40.66 43.55 47.53 50.31 52.59 53.28 53.45 54.07 54.81 54.59 54.93 55.83 56.05 56.05 57.46 57.73 56.63 55.38 55.24 55.24 55.08 55.62 56.75 58.66
41.63 39.55 41.57 41.39 41.19 40.94 41.78 42.89 45.76 46.68 44.63 40.57 41.44 41.55 44.27 44.50 43.53 43.53 46.32 43.59 46.85 48.60 50.51 52.67 53.65 53.09 53.05 54.01 54.39 54.77 55.05 54.71 54.07 55.27 55.16 53.99 54.50 54.36 53.34 52.60 53.00 57.15 57.64 59.24
MSLP
1021.35 1020.64 1019.86 1019.03 1018.13 1016.66 1015.19 1014.95 1012.87 1009.24 1008.97 1010.67 1011.36 1011.44 1009.90 1008.36 1006.95 1005.58 1005.31 1004.53 1004.56 1005.01 1005.46 1005.38 1004.99 1004.57 1004.05 1003.22 1003.11 1003.84 1003.96 1004.74 1005.04 1003.99 1002.87 1002.92 1003.51 1004.37 1005.78 1007.92 1008.78 1008.77 1007.88 1005.55
1021.51 1020.82 1020.05 1019.21 1018.55 1018.13 1018.04 1016.61 1013.89 1009.56 1009.47 1011.13 1011.97 1011.00 1009.82 1008.51 1007.26 1006.30 1005.71 1004.97 1004.76 1004.97 1005.53 1005.88 1005.41 1004.72 1004.14 1003.84 1003.32 1003.35 1003.97 1004.66 1005.13 1004.62 1003.73 1003.30 1003.55 1004.09 1005.00 1006.03 1007.07 1007.44 1007.37 1005.09
1021.61 1020.95 1020.16 1019.25 1018.28 1017.75 1017.84 1016.85 1014.89 1012.33 1011.54 1012.14 1012.45 1011.98 1010.33 1008.85 1007.37 1006.58 1006.22 1005.93 1005.25 1005.36 1005.76 1005.91 1005.84 1005.73 1005.10 1004.67 1004.33 1003.87 1003.74 1004.63 1004.92 1004.67 1004.05 1003.88 1003.77 1003.74 1004.24 1005.22 1006.47 1006.40 1005.89 1004.48
1021.76 1021.13 1020.32 1019.35 1018.17 1017.00 1017.09 1016.85 1016.48 1015.58 1014.73 1013.61 1013.41 1012.52 1011.02 1009.57 1008.18 1007.35 1007.20 1006.91 1007.34 1007.15 1006.98 1006.95 1006.99 1006.77 1006.32 1005.41 1005.36 1005.27 1005.26 1005.57 1005.23 1004.80 1004.27 1003.88 1003.75 1003.70 1003.71 1004.35 1005.01 1005.07 1005.06 1004.45
1021.88 1021.40 1020.80 1019.95 1018.69 1016.97 1016.88 1017.64 1017.50 1016.60 1016.01 1014.90 1014.06 1012.91 1011.92 1010.80 1009.42 1008.67 1008.66 1008.74 1008.36 1008.22 1008.45 1008.46 1008.31 1007.95 1007.63 1007.34 1006.61 1006.79 1006.59 1006.70 1006.28 1005.40 1004.64 1004.07 1003.72 1003.51 1003.40 1003.58 1004.14 1004.37 1004.74 1004.35
1022.01 1021.64 1021.13 1020.48 1019.64 1018.38 1018.89 1018.54 1017.82 1017.59 1016.59 1015.73 1014.84 1013.94 1012.70 1011.65 1010.93 1009.64 1009.29 1009.03 1008.78 1008.60 1008.53 1008.31 1008.22 1008.30 1008.21 1008.11 1008.27 1008.08 1007.99 1007.87 1007.84 1007.08 1005.65 1004.76 1004.14 1003.36 1003.05 1003.10 1003.58 1004.11 1005.07 1005.13
1022.04 1021.73 1021.37 1020.95 1020.53 1020.41 1020.55 1019.75 1019.25 1018.78 1017.75 1016.57 1015.72 1014.45 1013.31 1012.40 1011.84 1011.19 1009.95 1009.51 1009.32 1008.43 1008.18 1008.12 1008.07 1008.04 1008.03 1007.88 1007.61 1007.87 1008.20 1008.69 1008.70 1008.50 1007.33 1006.19 1004.64 1003.68 1003.42 1003.84 1004.55 1004.86 1005.01 1004.83
1022.10 1021.88 1021.58 1021.22 1020.87 1020.53 1020.54 1019.85 1019.59 1019.36 1018.66 1017.25 1015.84 1014.77 1013.82 1012.94 1012.34 1011.80 1010.99 1010.48 1009.95 1009.24 1008.76 1009.46 1009.57 1009.28 1008.92 1007.89 1007.29 1007.22 1007.40 1008.28 1008.96 1009.06 1008.79 1007.28 1005.51 1004.55 1004.07 1004.15 1005.27 1005.39 1005.61 1005.68
1022.17 1021.99 1021.70 1021.37 1021.03 1020.63 1020.29 1019.79 1019.20 1019.25 1019.27 1017.71 1016.35 1015.38 1014.67 1014.26 1013.76 1013.00 1012.04 1010.90 1009.94 1009.83 1010.50 1011.19 1011.62 1011.47 1010.52 1009.72 1008.21 1007.41 1007.63 1007.72 1008.72 1009.26 1009.10 1008.75 1007.52 1005.91 1004.62 1004.40 1005.32 1005.69 1005.71 1006.08
1022.23 1022.07 1021.82 1021.46 1021.09 1020.77 1020.70 1020.03 1019.39 1019.38 1019.46 1017.39 1016.52 1015.83 1015.38 1014.86 1014.65 1014.53 1013.71 1013.14 1011.72 1011.17 1012.07 1012.62 1012.90 1012.43 1011.36 1010.89 1009.99 1009.22 1008.66 1008.40 1008.70 1009.03 1008.82 1008.26 1007.71 1006.44 1005.35 1006.04 1006.86 1006.58 1006.19 1005.78
1022.23 1022.07 1021.86 1021.61 1021.33 1020.95 1020.80 1020.19 1019.50 1019.67 1019.43 1017.59 1016.25 1015.55 1015.43 1015.39 1015.36 1015.39 1014.71 1014.00 1013.46 1013.23 1013.60 1013.87 1013.66 1013.20 1012.34 1011.87 1010.99 1010.33 1010.09 1009.75 1009.54 1009.06 1008.70 1008.61 1007.70 1006.83 1007.02 1007.51 1007.63 1007.69 1007.64 1007.20
1022.18 1022.06 1021.91 1021.71 1021.49 1021.21 1020.87 1020.80 1019.67 1019.49 1019.59 1017.27 1015.77 1015.01 1014.57 1014.66 1014.31 1015.12 1015.02 1014.95 1014.87 1014.41 1014.69 1014.84 1014.48 1014.15 1013.42 1013.04 1012.39 1010.93 1010.82 1010.49 1010.27 1009.95 1009.17 1008.25 1007.77 1007.75 1007.17 1007.33 1007.66 1007.89 1007.88 1008.26
1022.15 1022.09 1021.92 1021.72 1021.52 1021.34 1021.30 1021.25 1020.59 1019.91 1019.40 1017.10 1015.60 1014.18 1012.88 1012.68 1013.33 1013.52 1014.80 1014.59 1014.12 1014.42 1014.49 1015.11 1015.00 1014.66 1013.98 1013.77 1013.13 1012.20 1011.43 1010.40 1010.35 1009.85 1009.39 1008.80 1008.19 1008.02 1007.69 1007.68 1007.67 1007.64 1007.64 1007.77
1022.13 1022.04 1021.91 1021.71 1021.49 1021.31 1021.20 1021.44 1020.64 1020.62 1019.98 1019.05 1015.95 1013.99 1013.38 1012.55 1012.60 1013.06 1013.28 1013.45 1013.56 1013.88 1014.47 1015.02 1015.20 1014.97 1013.83 1013.62 1013.10 1012.78 1011.75 1010.84 1011.13 1010.66 1010.02 1009.25 1008.68 1008.49 1008.39 1007.88 1007.96 1007.70 1007.69 1007.73
1022.04 1021.95 1021.79 1021.66 1021.36 1021.08 1020.83 1020.83 1020.28 1020.06 1020.38 1019.79 1017.50 1015.29 1013.25 1012.56 1012.13 1012.22 1012.24 1012.83 1013.48 1014.17 1014.74 1015.16 1015.10 1014.15 1013.80 1013.33 1013.14 1012.78 1012.02 1011.86 1011.80 1011.44 1010.80 1010.52 1009.64 1008.75 1008.27 1008.05 1007.98 1007.49 1007.36 1007.28
1021.93 1021.78 1021.60 1021.50 1021.26 1020.94 1020.83 1020.61 1019.94 1019.65 1019.82 1019.91 1018.93 1016.09 1014.04 1012.92 1012.19 1012.20 1012.52 1012.80 1013.19 1013.74 1014.46 1014.48 1013.96 1013.21 1013.27 1013.48 1013.41 1012.43 1012.31 1012.29 1012.09 1011.71 1011.09 1010.18 1009.28 1008.67 1008.25 1007.99 1007.58 1007.17 1006.82 1006.54
1021.71 1021.56 1021.36 1021.20 1021.15 1021.37 1021.24 1020.70 1020.03 1019.58 1020.17 1019.97 1019.33 1017.32 1014.26 1012.55 1012.22 1012.45 1012.66 1012.56 1012.88 1013.41 1013.92 1013.96 1013.63 1013.13 1013.10 1013.11 1012.90 1012.37 1012.01 1011.65 1011.34 1011.03 1010.78 1010.12 1009.55 1009.15 1008.57 1008.01 1007.31 1006.71 1006.18 1005.82
1021.47 1021.28 1021.01 1020.73 1020.71 1020.83 1020.58 1019.51 1019.11 1019.65 1020.11 1019.95 1019.69 1017.96 1015.51 1013.20 1013.48 1013.69 1013.12 1013.22 1013.31 1013.33 1013.53 1013.52 1013.50 1012.95 1012.70 1012.83 1012.35 1012.08 1011.62 1011.14 1010.64 1010.15 1010.14 1009.84 1009.26 1008.80 1008.22 1007.59 1007.10 1006.65 1006.33 1006.05
1021.08 1020.89 1020.61 1020.58 1020.56 1020.31 1019.51 1019.04 1019.12 1019.39 1020.12 1019.98 1019.45 1018.58 1016.52 1014.37 1014.40 1014.21 1013.82 1013.89 1014.24 1013.85 1014.04 1013.88 1013.83 1013.28 1013.13 1012.80 1012.69 1012.06 1011.35 1011.02 1010.22 1009.52 1009.11 1008.83 1008.52 1007.92 1007.51 1007.01 1006.47 1006.19 1005.81 1005.48
1020.72 1020.80 1020.81 1020.23 1019.28 1018.84 1019.23 1019.37 1019.45 1019.71 1019.87 1019.64 1019.31 1017.86 1016.75 1015.48 1015.25 1015.16 1015.26 1014.94 1014.99 1014.76 1014.62 1014.24 1014.03 1013.56 1012.92 1012.24 1011.67 1011.39 1010.70 1009.92 1009.37 1008.81 1008.19 1007.96 1007.50 1007.21 1006.84 1006.54 1006.09 1005.74 1005.41 1005.04
1020.79 1020.99 1020.73 1019.56 1018.99 1019.11 1019.33 1019.35 1019.36 1019.33 1019.29 1018.84 1017.95 1017.06 1016.39 1015.36 1015.79 1015.97 1015.83 1015.82 1015.59 1015.40 1015.10 1014.78 1014.08 1013.07 1012.26 1012.11 1011.52 1010.28 1009.77 1008.99 1008.25 1007.74 1007.08 1006.74 1006.48 1005.99 1005.75 1005.35 1005.05 1004.72 1004.35 1004.02
1021.35 1021.52 1020.73 1019.87 1019.27 1019.26 1019.50 1018.90 1018.44 1018.39 1017.62 1016.91 1016.55 1015.74 1015.52 1015.48 1015.43 1016.00 1016.21 1016.20 1015.98 1015.60 1015.05 1014.94 1014.27 1012.91 1011.74 1010.94 1010.21 1009.36 1008.34 1007.46 1006.69 1006.27 1005.69 1005.18 1004.89 1004.56 1004.47 1004.23 1003.88 1003.51 1003.16 1002.89
1020.96 1021.32 1020.86 1020.18 1019.68 1019.30 1019.02 1017.96 1017.31 1016.76 1016.13 1015.66 1015.43 1015.54 1015.59 1015.63 1015.93 1016.20 1016.39 1016.29 1015.92 1015.35 1015.20 1014.68 1013.61 1012.06 1011.25 1010.50 1009.61 1008.50 1007.59 1006.75 1005.98 1005.23 1004.63 1004.18 1003.69 1003.41 1003.30 1002.96 1002.55 1002.19 1001.84 1001.50
1021.16 1020.79 1020.82 1020.09 1019.19 1018.25 1017.16 1016.55 1016.05 1015.54 1015.31 1015.20 1015.07 1015.29 1015.60 1015.75 1016.06 1016.09 1016.23 1015.86 1015.68 1015.46 1015.14 1014.28 1012.77 1011.70 1010.77 1009.83 1009.28 1008.30 1007.32 1006.36 1005.59 1004.65 1003.97 1003.27 1001.70 1002.24 1002.19 1001.96 1001.54 1001.10 1000.61 1000.22
1020.67 1020.04 1019.61 1018.66 1017.44 1016.54 1015.67 1015.09 1015.11 1014.78 1014.56 1014.82 1014.76 1015.11 1015.48 1015.70 1015.86 1015.83 1015.92 1015.75 1015.43 1015.18 1014.73 1013.72 1012.40 1011.41 1010.73 1009.83 1008.95 1008.11 1007.16 1006.11 1005.40 1004.82 1004.04 1002.96 1002.81 1002.35 1002.04 1001.67 1001.15 1000.62 1000.16 999.83
1020.03 1019.20 1018.25 1017.20 1016.77 1015.86 1015.10 1014.76 1014.74 1014.29 1014.36 1014.37 1014.59 1014.95 1015.32 1015.16 1015.19 1015.38 1015.24 1015.01 1015.03 1014.89 1014.15 1013.27 1012.43 1011.70 1010.80 1009.87 1008.94 1008.30 1007.59 1006.81 1005.96 1005.36 1004.52 1004.00 1003.53 1003.06 1002.53 1001.81 1001.02 1000.32 999.91 999.38
1019.11 1017.91 1016.94 1016.87 1016.51 1015.80 1014.91 1014.47 1014.18 1013.84 1014.53 1015.01 1014.80 1014.95 1014.64 1014.66 1014.73 1015.13 1014.70 1014.75 1014.80 1013.96 1013.58 1013.09 1012.62 1012.09 1011.26 1010.10 1009.13 1008.56 1007.79 1007.29 1006.62 1006.17 1005.66 1005.20 1004.62 1003.88 1002.95 1001.99 1001.01 999.74 999.40 999.25
Wind_Speed
19 21 23 24 24 28 9 4 2 3 5 4 1 2 5 5 13 20 10 6 3 2 2 3 3 3 4 9 7 10 13 8 9 13 7 7 6 12 8 7 7 3 5 9
18 21 22 24 22 14 5 3 4 5 5 1 3 7 8 7 5 7 8 4 3 3 1 4 2 3 7 11 3 2 3 5 1 10 7 6 3 3 1 4 4 6 6 8
17 20 22 24 25 21 4 2 5 6 6 1 4 6 7 8 6 5 6 5 6 4 3 4 4 7 7 11 12 12 3 4 7 13 10 5 2 5 1 5 4 5 7 5
15 18 22 25 28 28 3 3 2 1 5 5 7 2 4 10 7 6 10 8 11 6 5 7 7 4 6 8 9 12 6 3 5 5 5 2 5 3 6 4 4 3 8 6
14 16 19 22 27 27 4 3 4 5 4 5 6 6 6 9 9 5 5 5 9 12 6 3 5 5 4 4 11 10 7 4 7 3 2 5 3 5 4 3 3 2 4 3
12 14 17 19 22 14 4 4 4 4 5 5 4 4 8 9 8 4 4 2 4 3 2 2 5 4 5 7 3 4 3 3 6 6 7 6 6 4 7 4 2 3 3 2
11 13 15 15 15 10 1 3 2 3 5 3 4 8 11 11 9 4 6 8 3 7 2 1 3 3 5 7 9 8 3 3 2 4 5 5 7 1 3 7 7 7 2 6
10 12 13 14 13 13 0 3 2 2 4 3 7 13 6 6 9 7 4 9 6 8 7 5 7 7 8 6 6 7 8 6 2 3 2 7 8 4 2 1 4 5 10 9
8 10 12 13 13 14 2 3 2 2 2 4 5 5 5 3 5 8 4 8 9 5 3 4 1 2 3 6 11 2 3 5 6 3 8 4 4 8 5 4 7 5 5 4
6 9 11 14 15 14 3 4 2 2 0 5 3 2 4 4 4 3 4 11 9 6 3 2 2 5 4 4 4 7 6 3 6 4 4 3 4 9 4 5 7 10 6 6
5 7 10 12 14 15 6 5 2 3 2 8 4 2 1 4 1 2 5 7 7 5 7 2 2 2 3 3 4 6 2 2 3 2 3 4 4 4 3 4 1 1 9 11
4 6 8 10 11 13 10 3 4 3 3 9 5 14 17 13 17 4 3 5 3 3 4 4 3 3 3 1 3 6 5 1 2 3 3 3 2 3 5 4 4 1 5 2
4 6 8 10 10 11 8 3 4 3 2 6 3 2 13 6 12 10 4 3 4 3 5 3 3 2 3 1 4 4 6 3 2 4 4 4 1 6 5 6 1 4 4 2
4 6 9 10 11 10 9 2 2 0 3 2 8 6 8 12 5 8 8 6 1 3 3 3 3 2 3 4 5 3 6 3 5 4 4 7 5 5 3 6 6 5 7 7
5 7 9 11 12 11 6 3 4 2 2 3 7 14 7 9 5 6 4 3 2 1 2 0 4 3 0 3 1 2 0 1 1 5 7 4 8 6 6 5 7 9 8 6
7 8 10 10 10 11 3 4 2 2 3 2 5 6 7 7 2 4 4 3 3 3 4 4 4 5 1 2 4 5 3 2 0 4 7 8 10 8 4 5 8 8 9 11
8 9 9 9 8 2 2 4 4 3 3 2 5 6 6 4 2 1 2 1 3 4 2 3 4 4 4 2 5 4 4 6 6 6 3 5 4 7 13 13 11 9 8 8
9 10 11 10 9 5 5 4 7 4 2 1 2 6 6 4 3 4 1 2 3 2 3 2 1 4 2 4 4 5 6 8 8 6 6 11 13 13 14 12 10 9 9 4
10 11 14 3 2 1 4 3 6 1 4 1 2 2 4 4 2 2 5 2 3 3 2 2 3 3 3 3 5 11 12 11 16 16 15 14 15 15 15 14 14 10 9 7
10 2 2 2 4 7 5 3 1 3 2 1 3 3 4 2 2 3 4 2 2 3 3 3 0 4 3 3 8 13 17 18 17 18 17 15 14 13 14 14 12 12 13 12
2 2 2 3 2 3 1 2 2 1 2 3 5 5 4 3 1 3 1 3 2 2 3 2 3 4 3 7 13 17 17 19 19 17 19 17 17 18 15 16 15 13 14 13
2 3 4 3 1 2 1 3 2 3 4 3 4 5 5 3 2 2 3 1 3 3 3 2 4 4 7 15 18 20 18 18 18 15 16 16 17 16 15 15 15 16 15 15
1 1 2 3 3 2 4 4 3 2 2 3 2 3 1 3 4 2 2 2 4 3 1 3 5 8 11 17 16 16 17 15 13 14 14 15 16 15 14 16 16 16 15 15
1 3 3 4 4 5 6 5 4 5 2 4 3 0 2 1 3 0 1 2 2 2 3 4 5 12 17 16 14 14 16 16 14 15 14 14 15 12 11 11 12 12 13 14
3 2 5 7 6 5 5 5 3 3 2 1 3 3 3 1 0 1 3 2 2 2 4 6 11 16 16 14 14 13 12 14 12 9 9 12 13 11 9 9 9 7 5 5
3 5 3 4 1 5 2 2 3 3 0 2 2 1 0 3 3 1 3 3 4 4 5 9 10 12 14 13 12 11 11 12 10 11 13 11 12 12 12 12 11 10 8 7
4 5 4 4 5 6 5 3 4 3 4 1 0 2 1 3 1 2 3 1 3 5 6 6 5 8 12 13 12 11 11 12 11 10 13 13 13 12 13 17 18 13 4 4
Wind_Direction
342 343 345 347 349 341 30 346 29 297 94 59 191 192 219 298 301 307 265 210 199 10 328 279 248 248 240 331 295 161 205 174 221 239 228 177 171 200 145 127 261 236 159 266
343 344 345 346 349 13 330 359 275 308 100 88 318 300 291 274 312 317 350 291 137 151 58 356 304 342 312 354 314 214 149 211 204 319 346 7 172 173 119 97 66 212 140 265
345 346 346 345 342 347 135 29 8 330 33 90 39 356 301 323 311 288 1 302 345 26 337 173 281 351 348 330 8 341 63 131 179 220 206 148 83 340 32 124 127 235 221 226
348 350 351 348 345 346 132 45 341 259 328 329 328 237 274 304 316 345 23 26 7 352 1 6 13 353 323 331 19 353 56 248 177 202 242 175 179 220 298 122 262 110 294 220
351 354 356 354 352 341 49 60 30 346 287 297 330 5 328 341 338 26 2 47 355 32 64 33 316 353 14 267 331 344 356 336 348 281 260 309 269 224 280 268 199 341 230 271
353 357 359 2 4 3 36 323 335 105 278 329 17 348 316 355 354 342 18 355 350 3 146 293 262 244 236 241 202 314 323 43 17 299 342 1 332 216 201 218 130 193 14 270
357 359 1 6 9 29 178 263 26 48 288 340 359 324 329 341 342 265 312 3 343 254 72 293 327 311 278 253 261 172 250 99 135 256 10 234 241 335 123 107 94 74 66 337
357 359 1 5 5 0 40 289 45 59 296 321 313 336 333 352 346 355 348 354 284 303 40 29 4 340 352 304 244 221 181 143 187 169 242 283 317 352 87 122 157 82 57 13
355 358 0 360 2 360 7 271 241 92 109 235 345 301 5 343 330 340 321 329 319 19 81 65 83 266 319 303 327 23 260 176 168 149 170 237 295 335 273 119 267 8 115 135
355 357 359 0 1 360 348 283 351 82 199 272 54 310 271 330 358 281 333 334 336 34 40 106 195 246 233 276 303 298 325 323 183 177 214 289 282 298 305 197 268 335 290 159
352 357 357 359 359 358 10 273 306 89 265 276 244 314 73 354 15 109 290 358 350 357 30 47 302 21 290 21 277 319 61 329 320 10 143 288 286 5 75 229 325 91 13 26
354 355 351 353 355 357 7 317 326 323 174 248 240 260 257 221 222 133 297 192 227 236 36 9 338 337 339 353 288 341 12 172 220 154 274 233 190 217 227 179 168 170 116 109
350 342 343 346 346 351 3 276 289 356 314 304 355 348 319 171 205 181 154 290 216 354 183 192 245 273 124 323 272 353 312 293 284 33 7 326 314 347 300 331 174 177 163 147
333 336 336 337 335 334 341 303 276 118 276 308 282 334 323 297 253 186 196 220 307 136 105 189 214 200 161 234 226 188 241 3 337 307 353 340 12 349 282 276 262 205 188 198
327 326 329 329 330 325 311 214 246 214 167 257 286 311 262 290 211 178 174 134 148 134 346 31 249 231 93 267 46 275 16 268 122 235 265 213 273 281 290 295 256 248 224 222
315 317 319 321 327 338 10 23 314 13 42 68 315 295 296 322 224 176 243 228 205 153 169 230 253 247 177 244 226 242 83 105 161 277 295 258 240 252 311 306 300 290 238 229
308 307 308 309 318 6 167 201 245 344 18 65 315 311 270 263 174 352 300 308 219 155 211 235 212 258 125 209 244 227 289 294 285 265 331 323 300 290 303 301 291 310 269 238
305 304 302 301 298 272 299 254 259 147 96 81 288 277 326 4 10 318 311 298 356 307 213 331 275 314 164 259 232 263 263 266 260 250 264 257 274 279 278 279 285 290 277 247
302 304 300 349 74 238 237 197 129 120 130 179 270 263 278 347 308 281 339 45 351 299 29 301 28 298 238 323 339 314 312 302 303 303 290 291 286 282 280 272 272 274 263 250
301 338 23 318 232 120 103 12 61 4 316 19 230 253 264 74 348 306 5 1 298 339 264 299 57 263 209 226 239 269 279 285 292 289 280 281 276 275 274 275 273 268 268 269
52 350 249 255 176 55 237 263 167 177 253 211 232 230 239 312 95 248 101 299 324 333 333 33 287 279 265 328 289 293 282 282 280 272 268 266 262 268 268 271 267 266 263 258
192 263 280 302 10 25 315 252 238 181 237 198 208 247 190 284 93 77 344 336 5 265 304 24 284 259 266 300 306 301 295 283 277 278 270 264 259 259 257 260 265 263 261 259
89 210 269 68 281 43 215 222 229 214 208 251 295 311 172 2 41 64 43 326 243 318 6 257 249 271 295 309 309 303 309 315 311 287 273 265 265 260 255 259 258 258 257 251
177 180 306 179 238 232 205 202 201 234 196 281 267 177 154 163 37 194 26 267 4 320 302 258 265 296 303 306 311 315 320 317 312 312 309 299 266 259 268 262 268 262 256 253
242 222 238 222 233 266 267 218 150 267 205 348 332 26 108 211 228 176 37 316 273 237 259 280 306 311 311 317 318 324 318 334 334 336 350 360 14 26 0 337 312 300 286 275
245 239 271 275 315 311 309 182 210 223 195 2 57 109 360 236 187 153 268 326 18 312 285 298 311 323 333 328 328 329 331 333 341 342 350 358 11 2 346 339 332 308 291 273
253 251 230 234 253 239 258 201 215 164 81 230 220 340 278 297 139 44 257 145 248 254 291 310 312 339 335 331 337 343 346 359 3 0 16 10 360 346 351 359 347 356 357 347